,,,PA_Meas_PMT16A,,PR_Meas_QMR101_102,,RH_Meas_QMH101,,SR_Meas_QMS101,,TA_Meas_QMH101,,GenWind,,GenWind,
date,time,status,PA,status,PR,status,RH,status,SR,status,TA,status,DirAvg,status,SpdAvg,
2009-06-13, 00:00:04,VALID,1002.03,VALID,0,VALID,85.1771,VALID,0,VALID,24.8722,VALID,132,VALID,0.578125,
2009-06-13, 00:01:04,VALID,1002.03,VALID,0,VALID,85.1313,VALID,0,VALID,24.8546,VALID,132,VALID,0.273828,
2009-06-13, 00:02:04,VALID,1002.03,VALID,0,VALID,85.9782,VALID,0,VALID,24.7551,VALID,116,VALID,0.378516,
2009-06-13, 00:03:04,VALID,1002.01,VALID,0,VALID,86.2529,VALID,0,VALID,24.6594,VALID,93,VALID,0.355078,
2009-06-13, 00:04:04,VALID,1002.04,VALID,0,VALID,86.7869,VALID,0,VALID,24.5813,VALID,93,VALID,0.557422,
2009-06-13, 00:05:04,VALID,1002.01,VALID,0,VALID,87.1684,VALID,0,VALID,24.5032,VALID,93,VALID,0.636719,
2009-06-13, 00:06:04,VALID,1001.97,VALID,0,VALID,87.5804,VALID,0,VALID,24.4446,VALID,93,VALID,0.726172,
2009-06-13, 00:07:04,VALID,1001.96,VALID,0,VALID,88.0458,VALID,0,VALID,24.4056,VALID,95,VALID,0.966406,
2009-06-13, 00:08:04,VALID,1001.95,VALID,0,VALID,87.9695,VALID,0,VALID,24.4037,VALID,95,VALID,0.987891,
2009-06-13, 00:09:04,VALID,1001.92,VALID,0,VALID,87.9237,VALID,0,VALID,24.4233,VALID,95,VALID,1.09375,
2009-06-13, 00:10:04,VALID,1001.94,VALID,0,VALID,87.9848,VALID,0,VALID,24.4446,VALID,95,VALID,0.941016,
2009-06-13, 00:11:04,VALID,1001.92,VALID,0,VALID,88.2976,VALID,0,VALID,24.4037,VALID,100,VALID,1.4043,
2009-06-13, 00:12:04,VALID,1001.9,VALID,0,VALID,88.3892,VALID,0,VALID,24.4233,VALID,88,VALID,1.18711,
2009-06-13, 00:13:04,VALID,1001.85,VALID,0,VALID,88.2594,VALID,0,VALID,24.4251,VALID,82,VALID,1.19687,
2009-06-13, 00:14:04,VALID,1001.84,VALID,0,VALID,88.6409,VALID,0,VALID,24.3647,VALID,76,VALID,1.24961,
2009-06-13, 00:15:04,VALID,1001.79,VALID,0,VALID,88.7554,VALID,0,VALID,24.3647,VALID,81,VALID,1.14414,
2009-06-13, 00:16:04,VALID,1001.79,VALID,0,VALID,88.7096,VALID,0,VALID,24.3257,VALID,82,VALID,1.14766,
2009-06-13, 00:17:04,VALID,1001.81,VALID,0,VALID,88.412,VALID,0,VALID,24.347,VALID,78,VALID,1.01992,
2009-06-13, 00:18:04,VALID,1001.79,VALID,0,VALID,88.1832,VALID,0,VALID,24.3257,VALID,97,VALID,0.919922,
2009-06-13, 00:19:04,VALID,1001.79,VALID,0,VALID,88.0306,VALID,0,VALID,24.347,VALID,87,VALID,0.824609,
2009-06-13, 00:20:04,VALID,1001.77,VALID,0,VALID,87.7483,VALID,0,VALID,24.3257,VALID,94,VALID,1.08086,
2009-06-13, 00:21:04,VALID,1001.75,VALID,0,VALID,87.5575,VALID,0,VALID,24.3257,VALID,94,VALID,1.06523,
2009-06-13, 00:22:04,VALID,1001.72,VALID,0,VALID,87.4126,VALID,0,VALID,24.3452,VALID,94,VALID,0.645312,
2009-06-13, 00:23:04,VALID,1001.76,VALID,0,VALID,87.4431,VALID,0,VALID,24.3452,VALID,104,VALID,0.497266,
2009-06-13, 00:24:04,VALID,1001.74,VALID,0,VALID,87.6567,VALID,0,VALID,24.3666,VALID,121,VALID,0.639063,
2009-06-13, 00:25:04,VALID,1001.7,VALID,0,VALID,87.3668,VALID,0,VALID,24.3647,VALID,80,VALID,1.01328,
2009-06-13, 00:26:04,VALID,1001.69,VALID,0,VALID,87.1532,VALID,0,VALID,24.3647,VALID,70,VALID,1.09336,
2009-06-13, 00:27:04,VALID,1001.7,VALID,0,VALID,87.0997,VALID,0,VALID,24.3452,VALID,69,VALID,0.820313,
2009-06-13, 00:28:04,VALID,1001.69,VALID,0,VALID,87.7177,VALID,0,VALID,24.3062,VALID,71,VALID,0.3375,
2009-06-13, 00:29:04,VALID,1001.68,VALID,0,VALID,88.1374,VALID,0,VALID,24.2476,VALID,70,VALID,0.35,
2009-06-13, 00:30:04,VALID,1001.66,VALID,0,VALID,88.8011,VALID,0,VALID,24.1696,VALID,27,VALID,0.976563,
2009-06-13, 00:31:04,VALID,1001.63,VALID,0,VALID,89.4649,VALID,0,VALID,24.0525,VALID,36,VALID,1.04961,
2009-06-13, 00:32:04,VALID,1001.64,VALID,0,VALID,90.0677,VALID,0,VALID,23.9549,VALID,31,VALID,0.920313,
2009-06-13, 00:33:04,VALID,1001.63,VALID,0,VALID,90.2966,VALID,0,VALID,23.8768,VALID,10,VALID,0.613672,
2009-06-13, 00:34:04,VALID,1001.61,VALID,0,VALID,90.617,VALID,0,VALID,23.8201,VALID,5,VALID,0.515234,
2009-06-13, 00:35:04,VALID,1001.56,VALID,0,VALID,90.9451,VALID,0,VALID,23.7597,VALID,5,VALID,0.379297,
2009-06-13, 00:36:04,VALID,1001.54,VALID,0,VALID,91.0824,VALID,0,VALID,23.7402,VALID,5,VALID,0.607031,
2009-06-13, 00:37:04,VALID,1001.53,VALID,0,VALID,91.1129,VALID,0,VALID,23.7012,VALID,8,VALID,0.719531,
2009-06-13, 00:38:04,VALID,1001.48,VALID,0,VALID,90.5865,VALID,0,VALID,23.6817,VALID,28,VALID,1.20703,
2009-06-13, 00:39:04,VALID,1001.47,VALID,0,VALID,91.1663,VALID,0,VALID,23.7225,VALID,28,VALID,1.46211,
2009-06-13, 00:40:04,VALID,1001.45,VALID,0,VALID,90.7696,VALID,0,VALID,23.742,VALID,46,VALID,0.981641,
2009-06-13, 00:41:04,VALID,1001.38,VALID,0,VALID,90.7772,VALID,0,VALID,23.7597,VALID,37,VALID,1.29609,
2009-06-13, 00:42:04,VALID,1001.41,VALID,0,VALID,90.3423,VALID,0,VALID,23.7793,VALID,55,VALID,0.927344,
2009-06-13, 00:43:04,VALID,1001.37,VALID,0,VALID,90.4568,VALID,0,VALID,23.7793,VALID,56,VALID,1.17031,
2009-06-13, 00:44:04,VALID,1001.34,VALID,0,VALID,90.5254,VALID,0,VALID,23.7597,VALID,58,VALID,1.04883,
2009-06-13, 00:45:04,VALID,1001.33,VALID,0,VALID,90.472,VALID,0,VALID,23.7402,VALID,74,VALID,0.916406,
2009-06-13, 00:46:04,VALID,1001.3,VALID,0,VALID,90.5254,VALID,0,VALID,23.7207,VALID,64,VALID,0.661328,
2009-06-13, 00:47:04,VALID,1001.32,VALID,0,VALID,90.1058,VALID,0,VALID,23.7012,VALID,71,VALID,0.807813,
2009-06-13, 00:48:04,VALID,1001.34,VALID,0,VALID,90.678,VALID,0,VALID,23.7225,VALID,103,VALID,0.949609,
2009-06-13, 00:49:04,VALID,1001.34,VALID,0,VALID,90.1745,VALID,0,VALID,23.7012,VALID,103,VALID,0.578516,
2009-06-13, 00:50:04,VALID,1001.31,VALID,0,VALID,89.2818,VALID,0,VALID,23.7012,VALID,103,VALID,1.01953,
2009-06-13, 00:51:04,VALID,1001.29,VALID,0,VALID,89.3734,VALID,0,VALID,23.7402,VALID,91,VALID,0.794922,
2009-06-13, 00:52:04,VALID,1001.27,VALID,0,VALID,88.9537,VALID,0,VALID,23.8006,VALID,138,VALID,0.762109,
2009-06-13, 00:53:04,VALID,1001.25,VALID,0,VALID,88.6486,VALID,0,VALID,23.8183,VALID,124,VALID,1.10273,
2009-06-13, 00:54:04,VALID,1001.24,VALID,0,VALID,88.4044,VALID,0,VALID,23.8768,VALID,118,VALID,0.546094,
2009-06-13, 00:55:04,VALID,1001.24,VALID,0,VALID,88.1984,VALID,0,VALID,23.9372,VALID,129,VALID,0.993359,
2009-06-13, 00:56:04,VALID,1001.25,VALID,0,VALID,87.9237,VALID,0,VALID,23.9549,VALID,138,VALID,0.866016,
2009-06-13, 00:57:04,VALID,1001.26,VALID,0,VALID,87.7025,VALID,0,VALID,23.9744,VALID,153,VALID,0.762109,
2009-06-13, 00:58:04,VALID,1001.25,VALID,0,VALID,87.2218,VALID,0,VALID,24.0134,VALID,139,VALID,1.01836,
2009-06-13, 00:59:04,VALID,1001.27,VALID,0,VALID,86.9472,VALID,0,VALID,24.0506,VALID,118,VALID,0.839063,
2009-06-13, 01:00:04,VALID,1001.27,VALID,0,VALID,86.7183,VALID,0,VALID,24.0915,VALID,123,VALID,0.670313,
2009-06-13, 01:01:04,VALID,1001.25,VALID,0,VALID,86.5962,VALID,0,VALID,24.111,VALID,154,VALID,0.849219,
2009-06-13, 01:02:04,VALID,1001.24,VALID,0,VALID,86.2071,VALID,0,VALID,24.1305,VALID,145,VALID,1.10977,
2009-06-13, 01:03:04,VALID,1001.23,VALID,0,VALID,86.085,VALID,0,VALID,24.1714,VALID,134,VALID,0.789844,
2009-06-13, 01:04:04,VALID,1001.26,VALID,0,VALID,85.7722,VALID,0,VALID,24.1891,VALID,175,VALID,0.749609,
2009-06-13, 01:05:04,VALID,1001.23,VALID,0,VALID,85.7798,VALID,0,VALID,24.2086,VALID,119,VALID,0.497266,
2009-06-13, 01:06:04,VALID,1001.19,VALID,0,VALID,85.4441,VALID,0,VALID,24.2476,VALID,134,VALID,0.455859,
2009-06-13, 01:07:04,VALID,1001.16,VALID,0,VALID,85.3907,VALID,0,VALID,24.2476,VALID,117,VALID,0.674219,
2009-06-13, 01:08:04,VALID,1001.15,VALID,0,VALID,85.1771,VALID,0,VALID,24.2476,VALID,119,VALID,0.765625,
2009-06-13, 01:09:04,VALID,1001.16,VALID,0,VALID,85.1542,VALID,0,VALID,24.2476,VALID,117,VALID,0.874609,
2009-06-13, 01:10:04,VALID,1001.16,VALID,0,VALID,85.1237,VALID,0,VALID,24.1891,VALID,134,VALID,1.01641,
2009-06-13, 01:11:04,VALID,1001.17,VALID,0,VALID,84.8795,VALID,0,VALID,24.2281,VALID,150,VALID,0.834375,
2009-06-13, 01:12:04,VALID,1001.18,VALID,0,VALID,84.7956,VALID,0,VALID,24.2671,VALID,174,VALID,0.454297,
2009-06-13, 01:13:04,VALID,1001.17,VALID,0,VALID,84.704,VALID,0,VALID,24.2476,VALID,155,VALID,0.354688,
2009-06-13, 01:14:04,VALID,1001.17,VALID,0,VALID,85.3526,VALID,0,VALID,24.2476,VALID,155,VALID,0.0375,
2009-06-13, 01:15:05,VALID,1001.14,VALID,0,VALID,85.8409,VALID,0,VALID,24.2086,VALID,155,VALID,0.152734,
2009-06-13, 01:16:04,VALID,1001.09,VALID,0,VALID,86.3978,VALID,0,VALID,24.1519,VALID,161,VALID,0,
2009-06-13, 01:17:05,VALID,1001.08,VALID,0,VALID,85.6043,VALID,0,VALID,24.072,VALID,128,VALID,0.853906,
2009-06-13, 01:18:05,VALID,1001.05,VALID,0,VALID,85.2381,VALID,0,VALID,24.0915,VALID,128,VALID,1.16719,
2009-06-13, 01:19:05,VALID,1001.06,VALID,0,VALID,84.6812,VALID,0,VALID,24.15,VALID,136,VALID,1.19805,
2009-06-13, 01:20:05,VALID,1001.04,VALID,0,VALID,84.3836,VALID,0,VALID,24.2086,VALID,131,VALID,1.32383,
2009-06-13, 01:21:05,VALID,1001.05,VALID,0,VALID,84.3912,VALID,0,VALID,24.2671,VALID,124,VALID,1.22187,
2009-06-13, 01:22:05,VALID,1001.03,VALID,0,VALID,83.9563,VALID,0,VALID,24.308,VALID,115,VALID,0.988281,
2009-06-13, 01:23:05,VALID,1001,VALID,0,VALID,83.7274,VALID,0,VALID,24.3062,VALID,115,VALID,1.04336,
2009-06-13, 01:24:05,VALID,1001.01,VALID,0,VALID,83.9182,VALID,0,VALID,24.3257,VALID,131,VALID,0.857031,
2009-06-13, 01:25:05,VALID,1001.03,VALID,0,VALID,83.7961,VALID,0,VALID,24.347,VALID,132,VALID,1.02734,
2009-06-13, 01:26:05,VALID,1001.01,VALID,0,VALID,83.7961,VALID,0,VALID,24.3257,VALID,136,VALID,0.933984,
2009-06-13, 01:27:05,VALID,1001.02,VALID,0,VALID,83.5749,VALID,0,VALID,24.347,VALID,136,VALID,1.03672,
2009-06-13, 01:28:05,VALID,1001.03,VALID,0,VALID,83.6664,VALID,0,VALID,24.3666,VALID,143,VALID,0.921875,
2009-06-13, 01:29:05,VALID,1001.01,VALID,0,VALID,83.3841,VALID,0,VALID,24.3452,VALID,123,VALID,1.12773,
2009-06-13, 01:30:05,VALID,1000.98,VALID,0,VALID,83.5672,VALID,0,VALID,24.3647,VALID,128,VALID,0.926562,
2009-06-13, 01:31:05,VALID,1001.01,VALID,0,VALID,83.3612,VALID,0,VALID,24.3842,VALID,143,VALID,1.18789,
2009-06-13, 01:32:05,VALID,1000.98,VALID,0,VALID,83.201,VALID,0,VALID,24.4037,VALID,145,VALID,1.13906,
2009-06-13, 01:33:05,VALID,1000.99,VALID,0,VALID,83.2239,VALID,0,VALID,24.4233,VALID,150,VALID,0.983594,
2009-06-13, 01:34:05,VALID,1000.96,VALID,0,VALID,83.2392,VALID,0,VALID,24.4037,VALID,134,VALID,1.11484,
2009-06-13, 01:35:05,VALID,1000.96,VALID,0,VALID,83.5215,VALID,0,VALID,24.3842,VALID,129,VALID,1.31562,
2009-06-13, 01:36:05,VALID,1000.97,VALID,0,VALID,83.4833,VALID,0,VALID,24.3861,VALID,131,VALID,1.2832,
2009-06-13, 01:37:05,VALID,1000.96,VALID,0,VALID,83.3536,VALID,0,VALID,24.3647,VALID,148,VALID,1.46563,
2009-06-13, 01:38:05,VALID,1000.97,VALID,0,VALID,83.407,VALID,0,VALID,24.3647,VALID,141,VALID,1.15352,
2009-06-13, 01:39:05,VALID,1000.96,VALID,0,VALID,83.5825,VALID,0,VALID,24.3452,VALID,128,VALID,1.33594,
2009-06-13, 01:40:05,VALID,1000.98,VALID,0,VALID,83.5596,VALID,0,VALID,24.3275,VALID,132,VALID,1.39961,
2009-06-13, 01:41:05,VALID,1000.9,VALID,0,VALID,83.5138,VALID,0,VALID,24.3452,VALID,124,VALID,1.39297,
2009-06-13, 01:42:05,VALID,1000.88,VALID,0,VALID,83.8495,VALID,0,VALID,24.3666,VALID,124,VALID,0.873047,
2009-06-13, 01:43:05,VALID,1000.86,VALID,0,VALID,83.8877,VALID,0,VALID,24.3062,VALID,123,VALID,1.08438,
2009-06-13, 01:44:05,VALID,1000.82,VALID,0,VALID,84.0098,VALID,0,VALID,24.2885,VALID,125,VALID,1.26445,
2009-06-13, 01:45:05,VALID,1000.8,VALID,0,VALID,84.1471,VALID,0,VALID,24.2281,VALID,125,VALID,1.16992,
2009-06-13, 01:46:05,VALID,1000.77,VALID,0,VALID,84.0174,VALID,0,VALID,24.2086,VALID,124,VALID,1.24141,
2009-06-13, 01:47:05,VALID,1000.76,VALID,0,VALID,84.2157,VALID,0,VALID,24.2104,VALID,127,VALID,1.36914,
2009-06-13, 01:48:05,VALID,1000.71,VALID,0,VALID,84.17,VALID,0,VALID,24.1891,VALID,130,VALID,1.63359,
2009-06-13, 01:49:05,VALID,1000.75,VALID,0,VALID,84.2768,VALID,0,VALID,24.1891,VALID,128,VALID,1.15586,
2009-06-13, 01:50:05,VALID,1000.77,VALID,0,VALID,84.2539,VALID,0,VALID,24.15,VALID,142,VALID,1.1043,
2009-06-13, 01:51:05,VALID,1000.75,VALID,0,VALID,84.3378,VALID,0,VALID,24.1324,VALID,138,VALID,0.83125,
2009-06-13, 01:52:05,VALID,1000.77,VALID,0,VALID,84.4599,VALID,0,VALID,24.1128,VALID,140,VALID,0.763281,
2009-06-13, 01:53:05,VALID,1000.76,VALID,0,VALID,84.4752,VALID,0,VALID,24.072,VALID,138,VALID,1.00625,
2009-06-13, 01:54:05,VALID,1000.74,VALID,0,VALID,84.5896,VALID,0,VALID,24.0933,VALID,132,VALID,1.07617,
2009-06-13, 01:55:05,VALID,1000.75,VALID,0,VALID,84.7727,VALID,0,VALID,24.0543,VALID,126,VALID,0.925,
2009-06-13, 01:56:05,VALID,1000.73,VALID,0,VALID,84.6888,VALID,0,VALID,24.0329,VALID,122,VALID,1.00508,
2009-06-13, 01:57:05,VALID,1000.7,VALID,0,VALID,84.5515,VALID,0,VALID,23.9939,VALID,102,VALID,1.10273,
2009-06-13, 01:58:05,VALID,1000.67,VALID,0,VALID,84.5667,VALID,0,VALID,23.9762,VALID,108,VALID,0.458984,
2009-06-13, 01:59:05,VALID,1000.67,VALID,0,VALID,84.7498,VALID,0,VALID,23.8963,VALID,105,VALID,0.285156,
2009-06-13, 02:00:05,VALID,1000.67,VALID,0,VALID,85.0626,VALID,0,VALID,23.8378,VALID,105,VALID,0.015625,
2009-06-13, 02:01:05,VALID,1000.65,VALID,0,VALID,85.5433,VALID,0,VALID,23.7597,VALID,33,VALID,0.426172,
2009-06-13, 02:02:05,VALID,1000.68,VALID,0,VALID,86.0163,VALID,0,VALID,23.7012,VALID,306,VALID,0.449219,
2009-06-13, 02:03:05,VALID,1000.71,VALID,0,VALID,86.2529,VALID,0,VALID,23.6622,VALID,300,VALID,0.472266,
2009-06-13, 02:04:05,VALID,1000.69,VALID,0,VALID,86.3597,VALID,0,VALID,23.6232,VALID,300,VALID,0.405859,
2009-06-13, 02:05:05,VALID,1000.67,VALID,0,VALID,86.642,VALID,0,VALID,23.5841,VALID,342,VALID,0.729688,
2009-06-13, 02:06:05,VALID,1000.66,VALID,0,VALID,86.8251,VALID,0,VALID,23.5256,VALID,342,VALID,0.417578,
2009-06-13, 02:07:05,VALID,1000.65,VALID,0,VALID,86.8022,VALID,0,VALID,23.5079,VALID,342,VALID,0.292969,
2009-06-13, 02:08:05,VALID,1000.64,VALID,0,VALID,86.9395,VALID,0,VALID,23.4475,VALID,342,VALID,0.216797,
2009-06-13, 02:09:05,VALID,1000.69,VALID,0,VALID,87.1455,VALID,0,VALID,23.4085,VALID,342,VALID,0.530469,
2009-06-13, 02:10:05,VALID,1000.7,VALID,0,VALID,87.527,VALID,0,VALID,23.3695,VALID,342,VALID,0.419141,
2009-06-13, 02:11:05,VALID,1000.68,VALID,0,VALID,87.7483,VALID,0,VALID,23.3908,VALID,34,VALID,0.779688,
2009-06-13, 02:12:05,VALID,1000.7,VALID,0,VALID,87.794,VALID,0,VALID,23.3695,VALID,52,VALID,0.749219,
2009-06-13, 02:13:05,VALID,1000.72,VALID,0,VALID,87.7635,VALID,0,VALID,23.3677,VALID,66,VALID,0.392578,
2009-06-13, 02:14:05,VALID,1000.71,VALID,0,VALID,87.9848,VALID,0,VALID,23.389,VALID,56,VALID,0.873828,
2009-06-13, 02:15:05,VALID,1000.67,VALID,0,VALID,87.939,VALID,0,VALID,23.389,VALID,57,VALID,0.809766,
2009-06-13, 02:16:05,VALID,1000.72,VALID,0,VALID,87.9771,VALID,0,VALID,23.4085,VALID,69,VALID,0.780469,
2009-06-13, 02:17:05,VALID,1000.69,VALID,0,VALID,87.8246,VALID,0,VALID,23.428,VALID,70,VALID,0.749219,
2009-06-13, 02:18:05,VALID,1000.7,VALID,0,VALID,87.3744,VALID,0,VALID,23.4671,VALID,54,VALID,0.671875,
2009-06-13, 02:19:05,VALID,1000.66,VALID,0,VALID,86.97,VALID,0,VALID,23.4866,VALID,52,VALID,0.699219,
2009-06-13, 02:20:05,VALID,1000.63,VALID,0,VALID,87.0616,VALID,0,VALID,23.4671,VALID,46,VALID,0.571094,
2009-06-13, 02:21:05,VALID,1000.63,VALID,0,VALID,87.2142,VALID,0,VALID,23.4475,VALID,47,VALID,0.401563,
2009-06-13, 02:22:05,VALID,1000.62,VALID,0,VALID,87.3973,VALID,0,VALID,23.4298,VALID,47,VALID,0.369531,
2009-06-13, 02:23:05,VALID,1000.62,VALID,0,VALID,87.9619,VALID,0,VALID,23.3695,VALID,45,VALID,0.620703,
2009-06-13, 02:24:05,VALID,1000.62,VALID,0,VALID,87.878,VALID,0,VALID,23.35,VALID,84,VALID,0.652734,
2009-06-13, 02:25:05,VALID,1000.64,VALID,0,VALID,87.4889,VALID,0,VALID,23.3305,VALID,107,VALID,0.633203,
2009-06-13, 02:26:05,VALID,1000.67,VALID,0,VALID,87.5041,VALID,0,VALID,23.311,VALID,108,VALID,0.53125,
2009-06-13, 02:27:05,VALID,1000.65,VALID,0,VALID,88.0916,VALID,0,VALID,23.3127,VALID,139,VALID,0.898438,
2009-06-13, 02:28:05,VALID,1000.65,VALID,0,VALID,87.9619,VALID,0,VALID,23.3305,VALID,110,VALID,0.996094,
2009-06-13, 02:29:05,VALID,1000.63,VALID,0,VALID,87.8246,VALID,0,VALID,23.389,VALID,129,VALID,1.10469,
2009-06-13, 02:30:05,VALID,1000.65,VALID,0,VALID,87.6643,VALID,0,VALID,23.4688,VALID,128,VALID,0.839844,
2009-06-13, 02:31:05,VALID,1000.68,VALID,0,VALID,87.5804,VALID,0,VALID,23.4671,VALID,135,VALID,0.869531,
2009-06-13, 02:32:05,VALID,1000.66,VALID,0,VALID,87.2676,VALID,0,VALID,23.5061,VALID,134,VALID,0.779297,
2009-06-13, 02:33:05,VALID,1000.68,VALID,0,VALID,87.0769,VALID,0,VALID,23.5256,VALID,144,VALID,0.940234,
2009-06-13, 02:34:05,VALID,1000.65,VALID,0,VALID,86.8251,VALID,0,VALID,23.5664,VALID,149,VALID,0.678125,
2009-06-13, 02:35:05,VALID,1000.65,VALID,0,VALID,86.7869,VALID,0,VALID,23.5664,VALID,136,VALID,0.589063,
2009-06-13, 02:36:05,VALID,1000.61,VALID,0,VALID,86.9395,VALID,0,VALID,23.5451,VALID,129,VALID,0.517187,
2009-06-13, 02:37:05,VALID,1000.62,VALID,0,VALID,87.0158,VALID,0,VALID,23.5061,VALID,143,VALID,0.957031,
2009-06-13, 02:38:05,VALID,1000.6,VALID,0,VALID,86.8632,VALID,0,VALID,23.5079,VALID,142,VALID,0.821875,
2009-06-13, 02:39:05,VALID,1000.61,VALID,0,VALID,86.7564,VALID,0,VALID,23.5274,VALID,147,VALID,0.614844,
2009-06-13, 02:40:05,VALID,1000.58,VALID,0,VALID,86.7488,VALID,0,VALID,23.5079,VALID,147,VALID,0.456641,
2009-06-13, 02:41:05,VALID,1000.57,VALID,0,VALID,86.8098,VALID,0,VALID,23.4866,VALID,137,VALID,0.405859,
2009-06-13, 02:42:05,VALID,1000.58,VALID,0,VALID,86.7106,VALID,0,VALID,23.4475,VALID,137,VALID,0.375781,
2009-06-13, 02:43:05,VALID,1000.56,VALID,0,VALID,87.1226,VALID,0,VALID,23.428,VALID,137,VALID,0.635938,
2009-06-13, 02:44:05,VALID,1000.55,VALID,0,VALID,87.2981,VALID,0,VALID,23.4493,VALID,113,VALID,1.05039,
2009-06-13, 02:45:05,VALID,1000.49,VALID,0,VALID,86.9166,VALID,0,VALID,23.4688,VALID,102,VALID,1.48906,
2009-06-13, 02:46:05,VALID,1000.52,VALID,0,VALID,86.703,VALID,0,VALID,23.5079,VALID,101,VALID,1.29805,
2009-06-13, 02:47:05,VALID,1000.51,VALID,0,VALID,86.7106,VALID,0,VALID,23.5079,VALID,101,VALID,0.871484,
2009-06-13, 02:48:05,VALID,1000.51,VALID,0,VALID,87.0311,VALID,0,VALID,23.4475,VALID,101,VALID,0.555859,
2009-06-13, 02:49:05,VALID,1000.53,VALID,0,VALID,87.4049,VALID,0,VALID,23.3908,VALID,139,VALID,0.645703,
2009-06-13, 02:50:05,VALID,1000.53,VALID,0,VALID,88.0229,VALID,0,VALID,23.3305,VALID,140,VALID,0.581641,
2009-06-13, 02:51:05,VALID,1000.53,VALID,0,VALID,88.145,VALID,0,VALID,23.311,VALID,140,VALID,0.674609,
2009-06-13, 02:52:05,VALID,1000.5,VALID,0,VALID,88.1068,VALID,0,VALID,23.3323,VALID,118,VALID,0.571094,
2009-06-13, 02:53:05,VALID,1000.5,VALID,0,VALID,88.0611,VALID,0,VALID,23.3127,VALID,111,VALID,0.485938,
2009-06-13, 02:54:05,VALID,1000.51,VALID,0,VALID,87.9771,VALID,0,VALID,23.311,VALID,111,VALID,0.192969,
2009-06-13, 02:55:05,VALID,1000.51,VALID,0,VALID,87.7635,VALID,0,VALID,23.2524,VALID,111,VALID,0,
2009-06-13, 02:56:05,VALID,1000.48,VALID,0,VALID,88.0687,VALID,0,VALID,23.1939,VALID,111,VALID,0.160938,
2009-06-13, 02:57:05,VALID,1000.48,VALID,0,VALID,88.1068,VALID,0,VALID,23.1354,VALID,111,VALID,0.239063,
2009-06-13, 02:58:05,VALID,1000.49,VALID,0,VALID,88.9156,VALID,0,VALID,23.0981,VALID,100,VALID,0.783203,
2009-06-13, 02:59:05,VALID,1000.45,VALID,0,VALID,89.7243,VALID,0,VALID,23.0573,VALID,96,VALID,0.644922,
2009-06-13, 03:00:05,VALID,1000.44,VALID,0,VALID,89.6862,VALID,0,VALID,23.0183,VALID,96,VALID,0.742578,
2009-06-13, 03:01:05,VALID,1000.44,VALID,0,VALID,89.9685,VALID,0,VALID,22.9793,VALID,105,VALID,0.742578,
2009-06-13, 03:02:05,VALID,1000.44,VALID,0,VALID,90.1211,VALID,0,VALID,22.9615,VALID,123,VALID,0.851953,
2009-06-13, 03:03:05,VALID,1000.43,VALID,0,VALID,89.7472,VALID,0,VALID,22.9615,VALID,131,VALID,0.886328,
2009-06-13, 03:04:05,VALID,1000.43,VALID,0,VALID,89.5107,VALID,0,VALID,23.0006,VALID,130,VALID,1.2293,
2009-06-13, 03:05:05,VALID,1000.43,VALID,0,VALID,88.8393,VALID,0,VALID,23.0573,VALID,124,VALID,1.6207,
2009-06-13, 03:06:05,VALID,1000.4,VALID,0,VALID,88.084,VALID,0,VALID,23.1957,VALID,116,VALID,1.39648,
2009-06-13, 03:07:05,VALID,1000.38,VALID,0,VALID,88.0306,VALID,0,VALID,23.2329,VALID,124,VALID,1.14375,
2009-06-13, 03:08:05,VALID,1000.39,VALID,0,VALID,87.8322,VALID,0,VALID,23.2524,VALID,122,VALID,1.37656,
2009-06-13, 03:09:05,VALID,1000.39,VALID,0,VALID,87.672,VALID,0,VALID,23.311,VALID,130,VALID,1.18867,
2009-06-13, 03:10:05,VALID,1000.37,VALID,0,VALID,87.3973,VALID,0,VALID,23.3713,VALID,129,VALID,1.30742,
2009-06-13, 03:11:05,VALID,1000.41,VALID,0,VALID,87.176,VALID,0,VALID,23.389,VALID,118,VALID,1.2582,
2009-06-13, 03:12:05,VALID,1000.33,VALID,0,VALID,86.7564,VALID,0,VALID,23.3695,VALID,100,VALID,0.78125,
2009-06-13, 03:13:05,VALID,1000.34,VALID,0,VALID,87.0387,VALID,0,VALID,23.35,VALID,64,VALID,0.865625,
2009-06-13, 03:14:05,VALID,1000.35,VALID,0,VALID,87.4202,VALID,0,VALID,23.311,VALID,77,VALID,0.750781,
2009-06-13, 03:15:05,VALID,1000.32,VALID,0,VALID,87.6491,VALID,0,VALID,23.2932,VALID,107,VALID,0.96875,
2009-06-13, 03:16:05,VALID,1000.3,VALID,0,VALID,88.084,VALID,0,VALID,23.2347,VALID,115,VALID,1.0832,
2009-06-13, 03:17:05,VALID,1000.28,VALID,0,VALID,88.2289,VALID,0,VALID,23.2134,VALID,115,VALID,1.00312,
2009-06-13, 03:18:05,VALID,1000.27,VALID,0,VALID,88.1526,VALID,0,VALID,23.1957,VALID,103,VALID,0.964453,
2009-06-13, 03:19:05,VALID,1000.27,VALID,0,VALID,88.1526,VALID,0,VALID,23.1566,VALID,86,VALID,0.864062,
2009-06-13, 03:20:05,VALID,1000.27,VALID,0,VALID,87.7788,VALID,0,VALID,23.0981,VALID,73,VALID,0.826563,
2009-06-13, 03:21:05,VALID,1000.27,VALID,0,VALID,88.351,VALID,0,VALID,22.9793,VALID,30,VALID,0.837891,
2009-06-13, 03:22:05,VALID,1000.28,VALID,0,VALID,89.2894,VALID,0,VALID,22.8623,VALID,29,VALID,0.524219,
2009-06-13, 03:23:05,VALID,1000.27,VALID,0,VALID,89.6175,VALID,0,VALID,22.7664,VALID,8,VALID,0.713281,
2009-06-13, 03:24:05,VALID,1000.27,VALID,0,VALID,90.1974,VALID,0,VALID,22.6884,VALID,7,VALID,0.848828,
2009-06-13, 03:25:05,VALID,1000.29,VALID,0,VALID,90.3271,VALID,0,VALID,22.6299,VALID,2,VALID,0.888672,
2009-06-13, 03:26:05,VALID,1000.31,VALID,0,VALID,91.1587,VALID,0,VALID,22.5892,VALID,351,VALID,0.773828,
2009-06-13, 03:27:05,VALID,1000.3,VALID,0,VALID,91.1358,VALID,0,VALID,22.5714,VALID,351,VALID,0.470703,
2009-06-13, 03:28:05,VALID,1000.31,VALID,0,VALID,91.6088,VALID,0,VALID,22.5501,VALID,351,VALID,0.719141,
2009-06-13, 03:29:05,VALID,1000.3,VALID,0,VALID,91.792,VALID,0,VALID,22.5714,VALID,351,VALID,0.6625,
2009-06-13, 03:30:05,VALID,1000.29,VALID,0,VALID,91.8148,VALID,0,VALID,22.5714,VALID,351,VALID,0.786328,
2009-06-13, 03:31:05,VALID,1000.32,VALID,0,VALID,91.2274,VALID,0,VALID,22.5501,VALID,351,VALID,0.273047,
2009-06-13, 03:32:05,VALID,1000.32,VALID,0,VALID,91.3037,VALID,0,VALID,22.4916,VALID,351,VALID,0.0785156,
2009-06-13, 03:33:05,VALID,1000.3,VALID,0,VALID,92.0819,VALID,0,VALID,22.5111,VALID,351,VALID,0.514844,
2009-06-13, 03:34:05,VALID,1000.29,VALID,0,VALID,92.265,VALID,0,VALID,22.5696,VALID,351,VALID,0.364844,
2009-06-13, 03:35:05,VALID,1000.32,VALID,0,VALID,92.2268,VALID,0,VALID,22.5909,VALID,351,VALID,0.323438,
2009-06-13, 03:36:05,VALID,1000.34,VALID,0,VALID,92.0361,VALID,0,VALID,22.5909,VALID,23,VALID,0.966016,
2009-06-13, 03:37:05,VALID,1000.32,VALID,0,VALID,91.5707,VALID,0,VALID,22.6104,VALID,20,VALID,0.857031,
2009-06-13, 03:38:05,VALID,1000.32,VALID,0,VALID,91.7614,VALID,0,VALID,22.6477,VALID,10,VALID,1.22461,
2009-06-13, 03:39:05,VALID,1000.33,VALID,0,VALID,91.4563,VALID,0,VALID,22.6672,VALID,355,VALID,0.860547,
2009-06-13, 03:40:05,VALID,1000.34,VALID,0,VALID,91.1816,VALID,0,VALID,22.6672,VALID,348,VALID,0.736328,
2009-06-13, 03:41:05,VALID,1000.35,VALID,0,VALID,90.9756,VALID,0,VALID,22.6477,VALID,342,VALID,0.834766,
2009-06-13, 03:42:05,VALID,1000.33,VALID,0,VALID,91.3113,VALID,0,VALID,22.5892,VALID,312,VALID,0.799609,
2009-06-13, 03:43:05,VALID,1000.35,VALID,0,VALID,91.5097,VALID,0,VALID,22.5696,VALID,313,VALID,0.540234,
2009-06-13, 03:44:05,VALID,1000.37,VALID,0,VALID,91.586,VALID,0,VALID,22.5306,VALID,313,VALID,0.415234,
2009-06-13, 03:45:05,VALID,1000.35,VALID,0,VALID,91.708,VALID,0,VALID,22.4916,VALID,339,VALID,0.808984,
2009-06-13, 03:46:05,VALID,1000.35,VALID,0,VALID,91.7996,VALID,0,VALID,22.4933,VALID,343,VALID,0.630859,